Regional Weather Roundup
Issued by NWS

Home | Current Version | Previous Version | Text Only | Print | Product List | Glossary On
Versions: 1 2 3 4 5 6 7 8 9 10 11 12 13 14 15 16 17 18 19 20 21 22 23 24 25 26 27 28 29 30 31 32 33 34 35 36 37 38 39 40 41 42 43 44 45 46 47 48 49 50
000
ASHW40 PHFO 021543
RWRHI

WEATHER ROUNDUP FOR HAWAII
NATIONAL WEATHER SERVICE HONOLULU HI
500 AM HST TUE JUN 02 2015

THIS IS AN AUTOMATED REPORT THAT HAS NOT BEEN QUALITY CONTROLLED.

NOTE..."FAIR" INDICATES FEW OR NO CLOUDS BELOW 12,000 FEET WITH NO
SIGNIFICANT WEATHER AND/OR OBSTRUCTIONS TO VISIBILITY.

* - THESE SITES REPORT LIMITED FIELDS

HIZ001>004-021600-
KAUAI-NIIHAU-

CITY           SKY/WX    TMP DP  RH WIND       PRES   REMARKS
LIHUE APT      PTCLDY    75  66  73 E10       30.05S
PORT ALLEN*    NOT AVBL
POIPU*           N/A     75 N/A N/A NE6G13      N/A
PRINCEVILLE*     N/A     72 N/A N/A MISG        N/A
KOKOLE POINT*  NOT AVBL
MOLOAA DAIRY*  NOT AVBL
WAIMEA HTS*      N/A     72  63  73 CALM        N/A
PUU OPAE*        N/A     64  57  77 N2          N/A
PUU LUA*       NOT AVBL
MAKAHA RIDGE*    N/A     66  64  94 CALM        N/A
$$

HIZ005>011-021600-
OAHU-

CITY           SKY/WX    TMP DP  RH WIND       PRES   REMARKS
HONOLULU       PTCLDY    75  65  70 NE13      30.02S
KALAELOA       CLEAR     69  63  81 E3        30.04S
KANEOHE MCB    MOCLDY    75  66  73 E6        30.02S
WHEELER FIELD  FAIR      66  62  88 W5        30.03S
BELLOWS*         N/A    N/A N/A N/A NE13        N/A
KAHUKU*          N/A    N/A N/A N/A E8G14       N/A
WHEELER*       NOT AVBL
WAIANAE HARBOR NOT AVBL
DILLINGHAM*      N/A     64  61  88 MISG        N/A
KAHUKU TRN*      N/A     72  64  78 E9G18       N/A
KAWAILOA*        N/A     68  61  77 E3G12       N/A
KII*             N/A     75  68  78 E13G18      N/A
MAKUA RANGE*     N/A     70  64  83 SE5         N/A
OAHU FOREST NW   N/A    N/A N/A N/A CALM        N/A
SCHOFIELD BRK*   N/A     64  61  88 MISG        N/A
SCHOFIELD S*   NOT AVBL
WAIANAE VLY*     N/A     77  72  83 MISG        N/A
KUAOKALA*        N/A     72  61  68 E8          N/A
HONOULIUULI*   NOT AVBL
MOKUOLOE IS*     N/A    N/A N/A N/A MISG        N/A
PALEHUA*         N/A     64  59  82 NE8G16      N/A
WAIAWA PHB*    NOT AVBL
$$

HIZ012>013-021600-
MOLOKAI-

CITY           SKY/WX    TMP DP  RH WIND       PRES   REMARKS
MOLOKAI AIRPT  CLEAR     72  65  78 N7        30.03S
KALAUPAPA      NOT AVBL
MAKAPULAPAI*     N/A     73  66  78 E15G25      N/A
MOLOKAI 1*       N/A     77  73  88 VRB1        N/A
PUU ALII*        N/A     56  56 100 CALM        N/A
$$

HIZ016-021600-
KAHOOLAWE-

CITY           SKY/WX    TMP DP  RH WIND       PRES   REMARKS
KAHOOLAWE*       N/A     68 N/A N/A E9G15       N/A
HAKIOAWA*        N/A     70  69  95 MISG      30.46R
HONOKANAIA*      N/A     75  68  78 N10G18    30.03R
KANELOA*         N/A     72  66  83 NE13G22   30.08
KEALIALALO*      N/A     70  66  88 E9G17     30.02F
LUA MAKIKA*    NOT AVBL
$$

HIZ014>015-021600-
LANAI-

CITY           SKY/WX    TMP DP  RH WIND       PRES   REMARKS
LANAI CITY     FAIR      69  66  90 N13       30.07S
LANAI 1*         N/A     70  66  88 NE16G23     N/A
$$

HIZ017>028-021600-
MAUI-

CITY           SKY/WX    TMP DP  RH WIND       PRES   REMARKS
KAHULUI        CLEAR     73  67  81 NE9       30.03S
KAPALUA-W MAUI NOT AVBL
HANA AIRPORT   CLOUDY    73  68  83 E6        30.07S
HANA*            N/A     73 N/A N/A E5          N/A
HALEAKALA SUMM   N/A     45  19  36 NW7         N/A
MAALAEA BAY*   NOT AVBL
HALEAKALA*     NOT AVBL
KAUPO GAP*       N/A     59  55  88 NW2G9       N/A
KULA 1*          N/A     48  48 100 E5          N/A
$$

HIZ023>026-021600-
BIG ISLAND OF HAWAII COAST AND LOWER SLOPES-

CITY           SKY/WX    TMP DP  RH WIND       PRES   REMARKS
KAILUA KONA    CLEAR     77  64  64 NE12      29.98S
HILO           CLOUDY    71  68  90 SW5       30.03S
HONOKAA*       NOT AVBL
KAWAIHAE MWT*    N/A     77 N/A N/A NE3         N/A
KAWAIHAE*        N/A     75 N/A N/A NE3         N/A
SOUTH POINT*     N/A     68 N/A N/A N6          N/A
UPOLU AIRPORT*   N/A    N/A N/A N/A E10G17      N/A
KAMUELA*       NOT AVBL
HAKALAU*         N/A     46  46 100 W3          N/A
KALOKO-HONOKO*   N/A     75  66  73 VRB3      29.97S
PALI 2*          N/A    N/A N/A N/A NE9G20      N/A
KEALAKOMO*       N/A     90  79  70 NE8G20      N/A  HX 105
KAUPULEHU*       N/A     70  63  78 S5          N/A
KAPAPALA*        N/A     60  59  97 N3          N/A
LOWER KAHUKU*    N/A     57  55  94 N3          N/A
PUHE CS*         N/A     75  68  78 NE2         N/A
PUHO CS*         N/A     71  66  83 E2          N/A
PTA KEAMUKU*     N/A     57  54  88 CALM        N/A
WAIKOLOA*        N/A    N/A N/A N/A E12         N/A
$$

HIZ027>028-021600-
BIG ISLAND OF HAWAII INTERIOR AND SUMMMITS-

CITY           SKY/WX    TMP DP  RH WIND       PRES   REMARKS
BRADSHAW FIELD CLOUDY    50  46  87 SE6       30.33R
MK VISITOR CEN NOT AVBL
MAUNA KEA*       N/A     37   5  25 NW26        N/A  WCI  26
MAUNA LOA*       N/A     41   3  20 MISG        N/A
MAUNA LOA 1*   NOT AVBL
PTA KIPUKA*      N/A     52  50  93 E3          N/A
PTA RANGE 17*    N/A     55  50  82 E7          N/A
PTA WEST*        N/A     70  64  83 SE9         N/A
NENE CABIN*      N/A     50  41  71 N7          N/A
AHUMOA*          N/A     50  45  82 NE5         N/A
PTA PORTABLE*  NOT AVBL
PUU MALI*        N/A     54  46  76 S3G9        N/A
$$

HIC003-021600-
NORTHWEST ISLANDS-

CITY           SKY/WX    TMP DP  RH WIND       PRES   REMARKS
MIDWAY ISLAND  CLEAR    N/A N/A N/A CALM      30.10S
MIDWAY NOS*    NOT AVBL
FRENCH FRIGATE NOT AVBL
$$

PHZ110>124-180-021600-
BUOY REPORTS

STATION/POSITION TIME  TEMP    WIND        PRES    WAVE   SWELL
                       AIR SEA DIR/SP/G            HT/PER HT/DIR
                 (UTC) (F)     (DEG/KT/KT) (MB)    (FT/S) (FT/D)
BUOY 51001       NOT AVBL
BUOY 51101       1500   74 76  100/ 16/ 19 1017.6F   6/16   3/150
BUOY 51100       NOT AVBL
BUOY 51002       1500   79 80   80/ 14/ 16 1014.6R   6/16   5/150
BUOY 51003       1500   78 80  100/  8/ 10 1015.8R   5/16   5
BUOY 51004       1418   78 80   40/ 16/ 19 1014.2R   7/15   5/170
BARBERS PT BUOY  NOT AVBL
WAIMEA BAY BUOY  1500      76                N/A     3/11   2/340
KAILUA BAY BUOY  1500      77                N/A     5/17   2/140
LANAI BUOY       NOT AVBL
BARBERS PT 2     1500      78                N/A     5/17   3/170
PAUWELA MAUI     1500      76                N/A     5/ 6   2/350
HILO             1500      77                N/A     5/ 8   2/ 10
KANEOHE BAY BUOY 1500      76                N/A     4/ 6   2/350
HANALEI KAUAI    1500      78                N/A     5/ 6
KAHULUI HARBOR   1500   74 79   50/ 10/ 13 1016.8S
HONOLULU HARBOR  1500   75 78   30/  2/  3 1016.9R
KILO NALU        NOT AVBL
HILO HARBOR      1500   71 77  220/  3/  4 1016.6R
MOKUOLOE         1500      78              1017.4S
NAWILIWILI       1500   75 79   40/  6/  9 1017.5R
WHOTS BUOY       NOT AVBL
BUOY 51028       NOT AVBL
$$

......................KEY........................................
  SKY/WX - SKY CONDITIONS/PRESENT WEATHER
  TMP    - TEMPERATURE IN FAHRENHEIT
  DWPT   - DEWPOINT IN FAHRENHEIT
  RH     - RELATIVE HUMIDITY IN PERCENT
  WIND   - DIRECTION AND SPEED /MPH FOR ISLANDS...KTS FOR BUOYS/
  PRES   - MEAN SEA LEVEL PRESSURE IN INCHES OF HG
  VSB    - VISIBILITY IN MILES
  HX     - HEAT INDEX
  WCI    - WIND CHILL INDEX
  VRB    - VARIABLE WIND DIRECTION
  N/A    - NOT AVAILABLE



USA.gov is the U.S. government's official web portal to all federal, state and local government web resources and services.